Home > Time Zones > World Clock > Weather > U.S.A. > Yuma > Past weeks

Flag for U.S.A. Weather past 2 weeks in Yuma, Arizona, U.S.A.

Now
89 °F

Clear.


Feels Like: 92 °F
Forecast: 89 / 110 °F
Wind: 6 mph from South

Location: Yuma Marine Corps Air Station

Current Time: Aug 29, 2015 at 6:05:49 AM

Latest Report: Aug 29, 2015 at 4:57 AM


Visibility: 10 mi

Pressure: 29.73 "Hg

Humidity: 46%

Dew point: 66 °F

Location of YumaLocation

Historic Weather in Yuma — Graph

°F

Yuma temperature yesterday

Maximum temperature yesterday: 111 °F (at 3:57 PM)
Minimum temperature yesterday: 89 °F (at 4:57 AM)
Average temperature yesterday: 100 °F

Past Weeks' High & Low Weather Summary

 TemperatureHumidityPressure
High116 °F (Aug 15, 2:57 PM)75% (Aug 21, 3:57 AM)29.92 "Hg (Aug 21, 3:57 AM)
Low83 °F (Aug 23, 5:57 AM)13% (Aug 15, 2:57 PM)29.63 "Hg (Aug 18, 5:57 PM)
Average97 °F39%29.77 "Hg
* Reported Aug 14 4:57 AM — Aug 29 4:57 AM, Yuma, Weather by CustomWeather, © 2015

Note: Actual official high and low records may vary slightly from our data, if they occured in-between our weather recording intervals... More about our weather records

Advertising

Yuma weather history for previous 24 hours

 ConditionsComfort  
Time TempWeatherWind HumidityBarometerVisibility
4:57 AM
Sat, Aug 29
89 °FClear.6 mph46%29.73 "Hg10 mi
3:57 AM92 °FClear.3 mph43%29.73 "Hg10 mi
2:57 AM92 °FClear.8 mph43%29.72 "Hg10 mi
1:57 AM94 °FClear.6 mph40%29.72 "Hg10 mi
11:57 PM
Fri, Aug 28
98 °FClear.No wind35%29.73 "Hg10 mi
10:57 PM98 °FPassing clouds.5 mph35%29.72 "Hg10 mi
9:57 PM100 °FPassing clouds.7 mph32%29.72 "Hg10 mi
8:57 PM103 °FPassing clouds.8 mph27%29.72 "Hg10 mi
7:57 PM105 °FPassing clouds.6 mph25%29.70 "Hg10 mi
6:57 PM108 °FBroken clouds.8 mph21%29.69 "Hg10 mi
5:57 PM109 °FBroken clouds.3 mph20%29.69 "Hg10 mi
4:57 PM110 °FBroken clouds.6 mph19%29.69 "Hg10 mi
3:57 PM111 °FScattered clouds.8 mph19%29.70 "Hg10 mi
2:57 PM109 °FScattered clouds.No wind21%29.73 "Hg10 mi
1:57 PM108 °FScattered clouds.3 mph22%29.76 "Hg10 mi
12:57 PM108 °FPassing clouds.No wind22%29.79 "Hg10 mi
11:57 AM107 °FPassing clouds.No wind22%29.81 "Hg10 mi
10:57 AM105 °FSunny.3 mph25%29.83 "Hg10 mi
9:57 AM100 °FSunny.No wind32%29.84 "Hg10 mi
8:57 AM97 °FSunny.3 mph35%29.83 "Hg10 mi
7:57 AM93 °FSunny.3 mph42%29.83 "Hg10 mi
6:57 AM92 °FSunny.5 mph43%29.82 "Hg10 mi
Weather by CustomWeather, © 2015

See weather overviewHow to use our weather pages